Location: Gull Harbor
(47.1000°N, 122.9000°W)
Time: 16:28:42
(UTC-07:00)

N. Korean satellite - Pass Details

Date: 19 January 2018
Orbit: 458 x 513 km, 97.2° (Epoch: 26 May)

Event Time Altitude Azimuth Distance (km) Brightness Sun altitude
Rises 05:46:08 0° 35° (NE) 2,493 10.5 -20.8°
Reaches altitude 10° 05:49:48 10° 76° (ENE) 1,607 10.2 -20.1°
Maximum altitude 05:50:34 11° 89° (E) 1,571 10.3 -20.0°
Drops below altitude 10° 05:51:19 10° 102° (ESE) 1,604 10.4 -19.9°
Sets 05:54:58 0° 143° (SE) 2,473 10.9 -19.3°
